QPF
0.00 0.00 0.00 0.00 0.00 0.00 0.00 0.00 0.00 0.00 0.00 0.00 0.00 0.00 0.00 0.00 0.00 0.00 0.00 0.00 0.00 0.00 0.00 0.00 0.00 0.00 0.00 0.00 0.00 0.00 0.00 0.00 0.00 0.00 0.02 0.00 0.02 0.01 0.00 0.00 0.00 0.00 0.00 0.00 0.00 0.00 0.00 0.00 0.00
0.00 0.00 0.00 0.00 0.00 0.00 0.00 0.00 0.00 0.00 0.00 0.00 0.00 0.00 0.00 0.00 0.00 0.00 0.00 0.00 0.00 0.00 0.00 0.00 0.00 0.00 0.00 0.00 0.00 0.00 0.00 0.00 0.00 0.00 0.00 0.00 0.00 0.00 0.00 0.00 0.00 0.00 0.00 0.00 0.00 0.00 0.00 0.00 0.00
0.00 0.00 0.00 0.00 0.00 0.00 0.00 0.00 0.00 0.00 0.00 0.00 0.00 0.00 0.00 0.00 0.00 0.00 0.00 0.00 0.00 0.00 0.00 0.00 0.00 0.00 0.00 0.00 0.00 0.00 0.00 0.00 0.00 0.00 0.00 0.00 0.00 0.00 0.00 0.00 0.00 0.00 0.00 0.00 0.00 0.00 0.00 0.00 0.00
0.00 0.00 0.00 0.00 0.00 0.00 0.00 0.00 0.00 0.00 0.00 0.00 0.00 0.00 0.00 0.00 0.00 0.00 0.00 0.00 0.00 0.00 0.00 0.00 0.00 0.00 0.00 0.00 0.00 0.00 0.00 0.00 0.00 0.00 0.00 0.00 0.00 0.00 0.00 0.00 0.00 0.00 0.00 0.00 0.00 0.00 0.00 0.00 0.00
0.00 0.00 0.00 0.00 0.00 0.00 0.00 0.00 0.00 0.00 0.00 0.00 0.00 0.00 0.00 0.00 0.00 0.00 0.00 0.00 0.00 0.00 0.00 0.00 0.00 0.01 0.05 0.05 0.02 0.00 0.00 0.00 0.00 0.00 0.00 0.00 0.01 0.00 0.00 0.00 0.00 0.00 0.00 0.00 0.00 0.00 0.00 0.00 0.00
0.00 0.00 0.00 0.00 0.00 0.00 0.00 0.00 0.00 0.00 0.00 0.00 0.00 0.00 0.00 0.00 0.00 0.00 0.00 0.00 0.00 0.00 0.00 0.00 0.00 0.00 0.02 0.05 0.06 0.04 0.04 0.03 0.02 0.01 0.01 0.02 0.02 0.00 0.00 0.00 0.00 0.00 0.00 0.00 0.00 0.00 0.00 0.00 0.00
0.00 0.00 0.00 0.00 0.00 0.00 0.00 0.00 0.00 0.00 0.00 0.00 0.00 0.00 0.00 0.00 0.00 0.00 0.00 0.00 0.00 0.00 0.00 0.00 0.00 0.00 0.00 0.00 0.01 0.01 0.02 0.02 0.03 0.03 0.02 0.01 0.02 0.01 0.00 0.00 0.00 0.00 0.00 0.00 0.00 0.00 0.00 0.00 0.00
0.00 0.00 0.00 0.00 0.00 0.00 0.00 0.00 0.00 0.00 0.00 0.00 0.00 0.00 0.00 0.00 0.00 0.00 0.00 0.00 0.00 0.00 0.00 0.00 0.00 0.00 0.00 0.01 0.00 0.00 0.01 0.00 0.01 0.01 0.01 0.01 0.01 0.01 0.00 0.00 0.00 0.00 0.00 0.00 0.00 0.00 0.00 0.00 0.00
0.00 0.00 0.00 0.00 0.00 0.00 0.00 0.00 0.00 0.00 0.00 0.00 0.00 0.00 0.00 0.00 0.00 0.00 0.00 0.00 0.00 0.00 0.00 0.00 0.00 0.00 0.00 0.00 0.01 0.00 0.00 0.00 0.01 0.01 0.01 0.01 0.03 0.04 0.01 0.00 0.00 0.00 0.00 0.00 0.00 0.00 0.00 0.00 0.00
0.00 0.00 0.00 0.00 0.00 0.00 0.00 0.00 0.00 0.00 0.00 0.00 0.00 0.00 0.00 0.00 0.00 0.00 0.00 0.00 0.00 0.00 0.00 0.00 0.00 0.00 0.00 0.00 0.00 0.00 0.00 0.01 0.03 0.04 0.03 0.02 0.02 0.03 0.01 0.00 0.00 0.00 0.00 0.00 0.00 0.00 0.00 0.00 0.00
0.00 0.00 0.00 0.00 0.00 0.00 0.00 0.00 0.00 0.00 0.00 0.00 0.00 0.00 0.00 0.00 0.00 0.00 0.00 0.00 0.00 0.00 0.00 0.00 0.00 0.00 0.00 0.00 0.00 0.01 0.01 0.02 0.04 0.05 0.03 0.01 0.01 0.00 0.00 0.00 0.00 0.00 0.00 0.00 0.00 0.00 0.00 0.00 0.00
0.00 0.00 0.00 0.00 0.00 0.00 0.00 0.00 0.00 0.00 0.00 0.00 0.00 0.00 0.00 0.00 0.00 0.00 0.00 0.00 0.00 0.00 0.00 0.00 0.00 0.00 0.00 0.00 0.00 0.00 0.01 0.01 0.02 0.02 0.03 0.03 0.02 0.01 0.01 0.00 0.00 0.00 0.00 0.00 0.00 0.00 0.00 0.00 0.00
0.00 0.00 0.00 0.00 0.00 0.00 0.00 0.00 0.00 0.00 0.00 0.00 0.00 0.00 0.00 0.00 0.00 0.00 0.00 0.00 0.00 0.00 0.00 0.00 0.00 0.00 0.00 0.00 0.00 0.00 0.01 0.01 0.02 0.02 0.01 0.01 0.02 0.03 0.02 0.02 0.00 0.00 0.00 0.00 0.00 0.00 0.00 0.00 0.00
0.00 0.00 0.00 0.00 0.00 0.00 0.00 0.00 0.00 0.00 0.00 0.00 0.00 0.00 0.00 0.00 0.00 0.00 0.00 0.00 0.00 0.00 0.00 0.00 0.00 0.00 0.00 0.00 0.00 0.00 0.00 0.00 0.00 0.00 0.00 0.00 0.01 0.01 0.01 0.01 0.01 0.00 0.00 0.00 0.00 0.00 0.00 0.00 0.00
0.00 0.00 0.00 0.00 0.00 0.00 0.00 0.00 0.00 0.00 0.00 0.00 0.00 0.00 0.00 0.00 0.00 0.00 0.00 0.00 0.00 0.00 0.00 0.00 0.00 0.00 0.00 0.00 0.00 0.00 0.00 0.00 0.00 0.00 0.00 0.00 0.00 0.00 0.00 0.00 0.00 0.00 0.00 0.00 0.00 0.00 0.00 0.00 0.00
0.00 0.00 0.00 0.00 0.00 0.00 0.00 0.00 0.00 0.00 0.00 0.00 0.00 0.00 0.00 0.00 0.00 0.00 0.00 0.00 0.00 0.00 0.00 0.00 0.00 0.00 0.00 0.00 0.00 0.00 0.00 0.00 0.00 0.00 0.00 0.00 0.00 0.00 0.00 0.00 0.00 0.00 0.00 0.00 0.00 0.00 0.00 0.00 0.00
0.00 0.00 0.00 0.00 0.00 0.00 0.00 0.00 0.00 0.00 0.00 0.00 0.00 0.00 0.00 0.00 0.00 0.00 0.00 0.00 0.00 0.00 0.00 0.00 0.00 0.00 0.00 0.00 0.00 0.00 0.00 0.00 0.00 0.00 0.00 0.00 0.00 0.00 0.00 0.00 0.00 0.00 0.00 0.00 0.00 0.00 0.00 0.00 0.00
0.00 0.00 0.00 0.00 0.00 0.00 0.00 0.00 0.00 0.00 0.00 0.00 0.00 0.00 0.00 0.00 0.00 0.00 0.00 0.00 0.00 0.00 0.00 0.00 0.00 0.00 0.00 0.00 0.00 0.00 0.00 0.00 0.00 0.00 0.00 0.00 0.00 0.00 0.00 0.00 0.00 0.00 0.00 0.00 0.00 0.00 0.00 0.00 0.00
0.00 0.00 0.00 0.00 0.00 0.00 0.00 0.00 0.00 0.00 0.00 0.00 0.00 0.00 0.00 0.00 0.00 0.00 0.00 0.00 0.00 0.00 0.00 0.00 0.00 0.00 0.00 0.00 0.00 0.00 0.00 0.00 0.00 0.00 0.00 0.00 0.00 0.00 0.00 0.00 0.00 0.00 0.00 0.00 0.00 0.00 0.00 0.00 0.00
0.00 0.00 0.00 0.00 0.00 0.00 0.00 0.00 0.00 0.00 0.00 0.00 0.00 0.00 0.00 0.00 0.00 0.00 0.00 0.00 0.00 0.00 0.00 0.00 0.00 0.00 0.00 0.00 0.00 0.00 0.00 0.00 0.00 0.00 0.00 0.00 0.00 0.00 0.00 0.00 0.00 0.00 0.00 0.00 0.00 0.00 0.00 0.00 0.00
0.00 0.00 0.00 0.00 0.00 0.00 0.00 0.00 0.00 0.00 0.00 0.00 0.00 0.00 0.00 0.00 0.00 0.00 0.00 0.00 0.00 0.00 0.00 0.00 0.00 0.00 0.00 0.00 0.00 0.00 0.00 0.00 0.00 0.00 0.00 0.00 0.00 0.00 0.00 0.00 0.00 0.00 0.00 0.00 0.00 0.00 0.00 0.00 0.00
0.00 0.00 0.00 0.00 0.00 0.00 0.00 0.00 0.00 0.00 0.00 0.00 0.00 0.00 0.00 0.00 0.00 0.00 0.00 0.00 0.00 0.00 0.00 0.00 0.00 0.00 0.00 0.00 0.00 0.00 0.00 0.00 0.00 0.00 0.00 0.00 0.00 0.00 0.00 0.00 0.00 0.00 0.00 0.00 0.00 0.00 0.00 0.00 0.00
0.00 0.00 0.00 0.00 0.00 0.00 0.00 0.00 0.00 0.00 0.00 0.00 0.00 0.00 0.00 0.00 0.00 0.00 0.00 0.00 0.00 0.00 0.00 0.00 0.00 0.00 0.00 0.00 0.00 0.00 0.00 0.00 0.00 0.00 0.00 0.00 0.00 0.00 0.00 0.00 0.00 0.00 0.00 0.00 0.00 0.00 0.00 0.00 0.00
0.00 0.00 0.00 0.00 0.00 0.00 0.00 0.00 0.00 0.00 0.00 0.00 0.00 0.00 0.00 0.00 0.00 0.00 0.00 0.00 0.00 0.00 0.00 0.00 0.00 0.00 0.00 0.00 0.00 0.00 0.00 0.00 0.00 0.00 0.00 0.00 0.00 0.00 0.00 0.00 0.00 0.00 0.00 0.00 0.00 0.00 0.00 0.00 0.00
0.00 0.00 0.00 0.00 0.00 0.00 0.00 0.00 0.00 0.00 0.00 0.00 0.00 0.00 0.00 0.00 0.00 0.00 0.00 0.00 0.00 0.00 0.00 0.00 0.00 0.00 0.00 0.00 0.00 0.00 0.00 0.00 0.00 0.00 0.00 0.00 0.00 0.00 0.00 0.00 0.00 0.00 0.00 0.00 0.00 0.00 0.00 0.00 0.00
0.00 0.00 0.00 0.00 0.00 0.00 0.00 0.00 0.00 0.00 0.00 0.00 0.00 0.00 0.00 0.00 0.00 0.00 0.00 0.00 0.00 0.00 0.00 0.00 0.00 0.00 0.00 0.00 0.00 0.00 0.00 0.00 0.00 0.00 0.00 0.00 0.00 0.00 0.00 0.00 0.00 0.00 0.00 0.00 0.00 0.00 0.00 0.00 0.00
0.00 0.00 0.00 0.00 0.00 0.00 0.00 0.00 0.00 0.00 0.00 0.00 0.00 0.00 0.00 0.00 0.00 0.00 0.00 0.00 0.00 0.00 0.00 0.00 0.00 0.00 0.00 0.00 0.00 0.00 0.00 0.00 0.00 0.00 0.00 0.00 0.00 0.00 0.00 0.00 0.00 0.00 0.00 0.00 0.00 0.00 0.00 0.00 0.00
0.00 0.00 0.00 0.00 0.00 0.00 0.00 0.00 0.00 0.00 0.00 0.00 0.00 0.00 0.00 0.00 0.00 0.00 0.00 0.00 0.00 0.00 0.00 0.00 0.00 0.00 0.00 0.00 0.00 0.00 0.00 0.00 0.00 0.00 0.00 0.00 0.00 0.00 0.00 0.00 0.00 0.00 0.00 0.00 0.00 0.00 0.00 0.00 0.00
0.00 0.00 0.00 0.00 0.00 0.00 0.00 0.00 0.00 0.00 0.00 0.00 0.00 0.00 0.00 0.00 0.00 0.00 0.00 0.00 0.00 0.00 0.00 0.00 0.00 0.00 0.00 0.00 0.00 0.00 0.00 0.00 0.00 0.00 0.00 0.00 0.00 0.00 0.00 0.00 0.00 0.00 0.00 0.00 0.00 0.00 0.00 0.00 0.00
0.00 0.00 0.00 0.00 0.00 0.00 0.00 0.00 0.00 0.00 0.00 0.00 0.00 0.00 0.00 0.00 0.00 0.00 0.00 0.00 0.00 0.00 0.00 0.00 0.00 0.00 0.00 0.00 0.00 0.00 0.00 0.00 0.00 0.00 0.00 0.00 0.00 0.00 0.00 0.00 0.00 0.00 0.00 0.00 0.00 0.00 0.00 0.00 0.00
MSLP
1015.80 1015.49 1015.09 1014.37 1013.84 1013.23 1013.71 1014.63 1014.99 1014.85 1014.85 1015.28 1015.37 1014.99 1014.84 1015.01 1015.13 1016.19 1017.19 1017.29 1017.61 1017.50 1018.00 1018.54 1018.84 1018.96 1019.18 1019.57 1019.85 1020.00 1020.12 1020.23 1020.38 1020.42 1020.54 1020.72 1020.88 1020.88 1021.05 1021.19 1021.25 1021.20 1021.22 1021.17 1021.32 1021.45 1021.49 1021.43 1021.37
1015.63 1015.40 1014.79 1014.01 1013.30 1013.02 1013.91 1014.79 1014.82 1015.09 1015.35 1015.54 1015.49 1015.25 1015.03 1015.41 1015.95 1016.42 1016.83 1017.64 1017.75 1017.66 1017.95 1018.20 1018.96 1019.16 1019.38 1019.68 1019.91 1020.10 1020.25 1020.35 1020.45 1020.57 1020.70 1020.76 1020.85 1020.93 1021.19 1021.37 1021.44 1021.37 1021.40 1021.47 1021.55 1021.62 1021.69 1021.71 1021.66
1015.82 1015.46 1014.24 1013.83 1013.65 1013.49 1014.14 1014.94 1015.05 1015.41 1015.56 1015.37 1015.26 1015.59 1015.65 1016.07 1016.47 1016.85 1017.60 1017.73 1017.84 1017.98 1018.14 1018.35 1018.96 1019.11 1019.30 1019.68 1019.98 1020.20 1020.33 1020.48 1020.60 1020.70 1020.77 1020.90 1021.03 1021.22 1021.41 1021.58 1021.64 1021.59 1021.71 1021.79 1021.85 1021.96 1021.97 1021.93 1021.96
1015.57 1015.03 1014.98 1013.86 1013.99 1014.79 1014.86 1015.23 1015.51 1015.44 1015.58 1015.61 1015.51 1015.40 1016.45 1017.39 1017.42 1017.92 1018.09 1018.02 1017.94 1018.15 1018.42 1018.89 1019.28 1019.27 1019.41 1019.71 1019.95 1020.22 1020.40 1020.55 1020.70 1020.81 1020.89 1020.98 1021.13 1021.34 1021.51 1021.60 1021.80 1021.91 1021.97 1022.07 1022.19 1022.29 1022.25 1022.22 1022.26
1015.55 1014.71 1014.12 1014.31 1014.73 1015.17 1015.56 1015.76 1015.76 1015.50 1015.54 1015.46 1015.72 1015.75 1016.48 1017.66 1018.16 1018.25 1018.29 1018.31 1018.22 1018.36 1018.56 1018.88 1019.40 1019.48 1019.67 1019.85 1020.00 1020.21 1020.43 1020.62 1020.80 1020.95 1021.11 1021.21 1021.31 1021.51 1021.68 1021.77 1021.93 1022.08 1022.20 1022.27 1022.44 1022.51 1022.57 1022.53 1022.47
1014.91 1014.89 1014.14 1014.27 1014.95 1015.48 1015.78 1016.04 1015.94 1015.74 1015.81 1015.87 1015.84 1016.10 1017.18 1018.26 1018.42 1018.74 1018.70 1018.62 1018.57 1018.63 1018.97 1019.06 1019.46 1019.62 1019.77 1019.93 1020.13 1020.36 1020.61 1020.77 1020.93 1021.07 1021.20 1021.34 1021.34 1021.61 1021.80 1022.00 1022.14 1022.26 1022.39 1022.48 1022.68 1022.81 1022.87 1022.81 1022.73
1015.10 1014.84 1014.69 1014.81 1015.21 1015.58 1015.71 1016.24 1015.99 1015.89 1016.00 1016.21 1016.54 1016.44 1017.46 1018.30 1019.14 1019.17 1019.08 1018.90 1018.94 1019.04 1019.16 1019.25 1019.27 1019.71 1020.00 1020.00 1020.11 1020.29 1020.53 1020.76 1020.97 1021.10 1021.21 1021.42 1021.57 1021.77 1021.94 1022.07 1022.22 1022.35 1022.52 1022.78 1023.01 1023.05 1023.12 1023.28 1023.25
1016.12 1015.57 1015.40 1015.33 1015.29 1015.54 1016.07 1016.20 1016.48 1016.30 1016.45 1017.03 1017.26 1017.22 1018.15 1019.23 1019.71 1019.49 1019.47 1019.54 1019.67 1019.94 1019.86 1019.78 1019.61 1019.82 1019.81 1019.52 1020.04 1020.25 1020.41 1020.64 1020.82 1021.07 1021.29 1021.47 1021.70 1021.91 1022.17 1022.31 1022.45 1022.55 1022.76 1022.96 1023.17 1023.34 1023.52 1023.63 1023.71
1016.88 1015.78 1015.48 1015.56 1015.70 1015.79 1016.46 1016.31 1016.84 1017.11 1016.99 1017.40 1018.28 1019.02 1020.30 1020.47 1020.12 1019.76 1019.64 1019.69 1019.96 1020.28 1020.48 1020.48 1020.40 1020.16 1019.93 1019.93 1019.73 1020.29 1020.49 1020.55 1020.72 1020.94 1021.21 1021.42 1021.25 1021.63 1021.90 1022.32 1022.56 1022.70 1022.80 1022.93 1023.26 1023.49 1023.75 1023.85 1023.90
1016.50 1016.02 1015.90 1016.11 1016.09 1016.16 1016.66 1016.79 1016.94 1017.17 1017.34 1018.08 1019.15 1020.24 1020.87 1020.83 1020.58 1020.33 1020.31 1020.35 1020.52 1020.65 1020.78 1020.83 1020.69 1020.52 1020.48 1020.06 1020.09 1020.20 1020.44 1020.54 1020.33 1020.41 1020.68 1020.82 1020.99 1021.44 1021.77 1022.35 1022.55 1022.72 1022.92 1022.92 1023.04 1023.45 1023.72 1023.66 1023.60
1016.95 1016.44 1016.67 1016.85 1016.93 1017.00 1017.07 1017.24 1017.53 1017.55 1017.96 1018.67 1019.34 1020.52 1021.29 1021.39 1021.39 1021.36 1021.42 1021.59 1021.61 1021.50 1021.19 1021.12 1020.93 1020.72 1020.39 1020.05 1019.98 1020.08 1020.37 1020.34 1020.35 1020.43 1020.75 1021.00 1021.35 1021.75 1022.02 1022.35 1022.63 1022.78 1022.96 1023.03 1023.16 1023.23 1023.11 1023.49 1023.62
1017.03 1017.21 1017.21 1017.39 1017.57 1017.66 1017.52 1017.71 1017.91 1018.41 1019.13 1020.18 1020.83 1021.54 1021.89 1022.00 1022.18 1022.28 1022.23 1022.19 1022.04 1021.76 1021.57 1021.42 1021.19 1020.81 1020.44 1019.94 1019.81 1019.91 1020.10 1020.25 1020.24 1020.47 1020.67 1020.99 1021.43 1021.69 1022.09 1022.42 1022.53 1022.68 1022.83 1022.97 1023.27 1023.41 1023.29 1023.54 1023.80
1017.28 1017.33 1017.54 1017.71 1017.95 1017.92 1018.11 1017.97 1018.18 1019.11 1020.35 1021.19 1021.77 1022.17 1022.39 1022.62 1022.80 1022.91 1022.94 1022.73 1022.53 1022.21 1022.02 1021.70 1021.27 1020.75 1020.45 1020.21 1019.87 1020.06 1020.35 1020.51 1020.71 1021.02 1021.37 1021.43 1021.43 1021.36 1021.79 1022.37 1022.56 1022.69 1022.97 1023.03 1022.78 1023.22 1023.42 1023.37 1023.65
1017.60 1017.65 1017.54 1017.63 1017.86 1017.97 1018.07 1018.21 1018.75 1019.96 1020.91 1021.60 1022.17 1022.61 1022.92 1023.16 1023.41 1023.27 1023.30 1023.13 1022.97 1022.72 1022.39 1022.07 1021.69 1021.13 1020.43 1019.84 1020.13 1020.53 1020.98 1021.54 1021.91 1022.28 1022.37 1022.32 1022.29 1022.39 1022.46 1022.50 1022.67 1022.90 1023.12 1023.27 1023.46 1023.68 1023.89 1024.02 1024.21
1017.96 1017.60 1017.22 1017.22 1017.70 1017.81 1018.09 1018.44 1018.61 1019.63 1020.87 1021.62 1022.44 1023.06 1023.59 1023.92 1024.00 1024.03 1024.08 1023.83 1023.63 1023.19 1022.91 1022.63 1022.06 1021.27 1020.93 1021.32 1021.65 1021.94 1022.34 1022.66 1023.01 1023.26 1023.18 1023.07 1022.86 1022.83 1022.83 1022.97 1023.19 1023.42 1023.51 1023.66 1023.98 1024.20 1024.23 1024.17 1024.38
1017.80 1017.69 1016.99 1016.95 1017.51 1017.89 1018.23 1017.71 1018.74 1019.89 1020.63 1021.58 1022.48 1023.22 1023.82 1024.26 1024.38 1024.51 1024.49 1024.29 1024.08 1023.67 1023.41 1023.03 1022.30 1021.81 1021.88 1022.14 1022.42 1022.77 1023.12 1023.37 1023.77 1023.88 1023.83 1023.74 1023.65 1023.64 1023.57 1023.80 1024.00 1023.96 1023.93 1023.93 1024.05 1024.32 1024.39 1024.50 1024.36
1017.67 1016.74 1016.93 1016.87 1017.35 1017.65 1018.00 1017.79 1018.88 1019.95 1020.53 1021.39 1022.35 1023.12 1023.73 1024.08 1024.35 1024.62 1024.74 1024.70 1024.55 1024.29 1024.13 1023.82 1023.48 1023.10 1022.96 1023.06 1023.34 1023.71 1023.99 1024.14 1024.43 1024.40 1024.63 1024.49 1024.27 1024.26 1024.32 1024.60 1024.73 1024.74 1024.73 1024.65 1024.57 1024.66 1024.52 1024.55 1024.48
1016.64 1016.90 1016.98 1016.83 1017.22 1017.67 1017.65 1017.55 1018.73 1019.92 1020.55 1021.33 1022.34 1023.10 1023.68 1024.22 1024.72 1025.03 1025.03 1025.02 1024.84 1024.57 1024.36 1024.22 1024.15 1024.04 1024.06 1024.13 1024.12 1024.28 1024.72 1025.15 1025.58 1025.71 1025.68 1025.47 1025.31 1024.87 1024.94 1025.19 1025.42 1025.11 1024.83 1024.91 1024.98 1025.09 1025.06 1025.01 1024.82
1017.01 1016.97 1016.71 1017.10 1017.62 1017.82 1017.39 1017.43 1018.18 1019.70 1020.65 1021.39 1022.20 1022.93 1023.60 1024.36 1025.09 1025.33 1025.35 1025.21 1024.95 1024.85 1024.57 1024.43 1024.45 1024.39 1024.14 1024.07 1024.53 1025.16 1025.58 1026.25 1026.62 1026.92 1026.86 1026.79 1026.70 1026.58 1026.11 1025.84 1025.62 1025.56 1025.70 1025.87 1025.82 1025.20 1025.16 1024.99 1024.88
1017.61 1017.39 1017.12 1017.55 1018.02 1018.18 1017.60 1017.42 1017.74 1019.53 1020.24 1021.16 1022.00 1022.87 1023.55 1024.39 1024.92 1025.36 1025.64 1025.67 1025.49 1025.27 1025.03 1024.87 1024.94 1025.04 1024.89 1024.98 1025.24 1025.83 1026.66 1027.45 1027.67 1027.87 1027.86 1027.74 1027.58 1027.28 1027.21 1027.01 1027.07 1027.00 1026.52 1026.53 1026.38 1026.23 1025.72 1025.60 1025.52
1017.72 1017.55 1017.37 1017.74 1018.36 1018.51 1018.27 1017.09 1017.25 1019.07 1020.49 1021.58 1022.22 1022.78 1023.40 1023.84 1024.48 1025.11 1025.62 1025.96 1026.00 1025.96 1025.70 1025.15 1025.09 1025.15 1025.38 1025.69 1025.92 1026.30 1026.67 1027.28 1028.04 1028.57 1028.84 1028.79 1028.52 1028.46 1028.17 1028.04 1027.99 1027.82 1027.49 1027.69 1027.63 1027.35 1027.10 1026.62 1026.51
1017.60 1017.78 1018.13 1018.37 1018.67 1018.13 1018.48 1016.15 1016.64 1018.09 1019.77 1021.21 1022.10 1022.73 1023.29 1024.06 1024.59 1025.08 1025.45 1025.93 1026.43 1026.69 1026.59 1026.08 1025.68 1025.45 1025.31 1025.26 1025.34 1026.15 1026.91 1027.54 1028.75 1029.22 1029.65 1029.70 1029.53 1029.12 1029.07 1029.00 1028.81 1028.74 1028.80 1028.66 1028.52 1028.45 1028.07 1027.81 1027.62
1017.85 1018.28 1018.59 1018.76 1018.65 1018.80 1018.44 1018.19 1016.13 1017.99 1018.84 1020.27 1021.64 1022.55 1023.37 1024.29 1024.94 1025.41 1025.94 1026.43 1026.73 1026.94 1026.98 1026.77 1026.37 1026.50 1026.45 1026.53 1026.80 1027.00 1027.70 1028.47 1028.93 1029.61 1030.02 1030.12 1030.13 1030.12 1029.91 1029.66 1029.57 1029.62 1029.78 1029.54 1029.23 1029.05 1028.99 1028.77 1028.71
1018.83 1019.13 1019.52 1019.59 1019.29 1018.17 1017.38 1017.81 1015.36 1016.63 1017.11 1018.75 1021.11 1022.31 1023.14 1024.15 1024.94 1025.85 1026.52 1026.86 1027.04 1027.41 1027.40 1027.20 1027.10 1027.09 1027.31 1027.00 1027.24 1027.72 1028.09 1028.60 1028.99 1029.81 1030.15 1030.47 1030.70 1030.88 1030.71 1030.44 1030.45 1030.50 1030.26 1030.35 1030.02 1029.64 1029.80 1029.65 1029.48
1018.52 1018.82 1019.28 1019.42 1019.20 1017.29 1017.39 1017.46 1014.68 1015.69 1016.88 1017.90 1019.41 1021.08 1022.49 1023.85 1024.75 1025.45 1026.18 1026.76 1027.29 1027.67 1027.87 1027.77 1027.62 1027.73 1027.82 1027.63 1028.07 1028.39 1028.88 1029.09 1029.35 1029.89 1030.15 1030.15 1030.62 1030.86 1031.13 1031.04 1031.23 1031.23 1031.04 1030.99 1030.59 1030.45 1030.35 1030.15 1030.01
1017.91 1017.58 1017.66 1017.81 1018.06 1017.32 1017.91 1016.15 1015.19 1016.23 1017.45 1018.43 1019.10 1020.56 1021.99 1023.25 1024.31 1025.21 1025.82 1026.50 1027.15 1027.68 1027.79 1027.86 1027.97 1028.08 1028.30 1028.15 1028.32 1028.72 1029.23 1029.73 1029.99 1030.47 1030.67 1030.93 1031.19 1031.64 1031.88 1031.93 1031.87 1031.86 1031.68 1031.38 1031.29 1030.84 1030.88 1030.75 1030.34
1017.75 1017.63 1017.44 1018.07 1018.86 1017.75 1015.81 1015.46 1015.61 1016.82 1017.92 1018.96 1019.78 1020.94 1021.76 1022.61 1023.67 1024.51 1025.15 1025.78 1026.61 1027.34 1027.58 1027.59 1027.85 1028.39 1028.55 1028.67 1028.86 1029.03 1029.47 1029.79 1030.24 1030.86 1031.26 1031.37 1031.55 1031.93 1032.01 1031.97 1032.18 1032.05 1031.87 1031.89 1031.62 1031.37 1031.13 1030.95 1030.62
1016.67 1016.39 1017.61 1017.59 1017.08 1016.26 1014.96 1014.91 1014.22 1015.84 1016.80 1018.46 1019.59 1020.29 1021.22 1022.25 1023.31 1024.10 1024.77 1025.48 1026.35 1027.04 1027.57 1027.91 1028.14 1028.31 1028.61 1029.11 1029.31 1029.62 1030.13 1030.44 1030.86 1031.20 1031.20 1031.38 1031.79 1031.88 1032.02 1031.99 1032.03 1031.84 1031.95 1031.81 1031.80 1031.57 1031.36 1031.13 1030.72
1016.51 1016.21 1016.01 1015.61 1015.40 1014.98 1014.47 1013.19 1013.05 1013.86 1015.22 1016.81 1018.11 1019.15 1020.04 1021.18 1022.23 1023.14 1024.03 1024.87 1025.66 1026.27 1027.08 1027.75 1028.43 1028.57 1028.82 1029.23 1029.63 1030.12 1030.38 1030.57 1031.08 1031.40 1031.59 1031.65 1031.91 1032.09 1032.14 1032.15 1032.11 1032.12 1032.08 1032.06 1031.83 1031.48 1031.37 1031.15 1030.97
1014.89 1014.54 1014.58 1013.98 1014.78 1014.74 1014.41 1012.61 1013.32 1014.14 1014.93 1016.06 1017.08 1018.28 1019.51 1020.69 1021.64 1022.44 1023.34 1024.29 1024.99 1025.79 1026.49 1027.23 1028.09 1028.33 1028.63 1029.12 1029.60 1029.89 1030.20 1030.83 1031.04 1031.41 1031.66 1031.96 1031.86 1032.12 1032.12 1032.26 1032.24 1032.24 1032.13 1032.05 1031.84 1031.56 1031.33 1031.07 1030.79
Thickness
5751 5752 5755 5754 5733 5733 5709 5708 5718 5716 5719 5724 5724 5724 5721 5723 5715 5701 5723 5725 5721 5721 5717 5712 5710 5709 5707 5703 5701 5700 5698 5697 5695 5695 5695 5694 5693 5694 5692 5691 5691 5692 5693 5694 5693 5691 5691 5692 5691
5752 5754 5755 5745 5728 5717 5711 5717 5714 5719 5722 5724 5724 5725 5724 5714 5725 5723 5723 5721 5720 5720 5717 5714 5710 5708 5706 5704 5702 5700 5698 5697 5696 5694 5692 5692 5692 5692 5690 5689 5689 5690 5690 5690 5689 5689 5689 5689 5689
5751 5753 5746 5735 5723 5715 5711 5717 5720 5721 5724 5724 5723 5726 5723 5715 5723 5723 5721 5721 5719 5718 5716 5714 5710 5708 5706 5703 5700 5699 5697 5696 5695 5694 5693 5692 5690 5688 5687 5686 5685 5686 5685 5685 5685 5684 5684 5685 5685
5750 5750 5740 5730 5714 5714 5717 5719 5720 5721 5723 5724 5724 5719 5721 5719 5718 5718 5719 5719 5719 5717 5714 5711 5708 5707 5705 5703 5700 5697 5696 5695 5693 5692 5691 5691 5689 5687 5686 5685 5683 5682 5682 5680 5680 5679 5680 5681 5680
5748 5745 5727 5717 5711 5716 5717 5719 5720 5718 5720 5723 5722 5716 5715 5717 5718 5718 5718 5717 5718 5716 5714 5711 5707 5706 5704 5702 5700 5698 5696 5693 5691 5689 5688 5686 5686 5684 5683 5683 5682 5680 5679 5678 5677 5677 5676 5676 5677
5739 5738 5722 5713 5711 5714 5717 5718 5719 5719 5719 5720 5720 5718 5712 5714 5713 5713 5714 5714 5713 5713 5710 5708 5706 5704 5702 5700 5698 5696 5693 5692 5689 5687 5685 5684 5684 5682 5681 5679 5678 5677 5676 5675 5674 5673 5672 5673 5673
5732 5729 5715 5714 5709 5709 5717 5718 5717 5718 5717 5716 5720 5713 5714 5711 5707 5709 5709 5709 5709 5708 5706 5705 5704 5701 5699 5698 5697 5695 5692 5690 5688 5686 5685 5683 5682 5680 5678 5677 5675 5674 5673 5671 5669 5669 5669 5667 5667
5728 5725 5707 5710 5707 5708 5716 5716 5716 5716 5713 5718 5717 5710 5708 5704 5702 5705 5704 5703 5702 5700 5700 5700 5700 5699 5698 5698 5695 5694 5692 5690 5687 5685 5683 5681 5679 5677 5675 5673 5671 5669 5668 5666 5665 5664 5662 5662 5661
5722 5717 5707 5706 5705 5711 5712 5712 5712 5713 5713 5712 5706 5702 5692 5693 5699 5701 5702 5701 5699 5696 5694 5693 5693 5695 5695 5694 5695 5691 5689 5688 5686 5684 5682 5680 5678 5676 5673 5670 5667 5665 5665 5664 5661 5659 5657 5657 5657
5719 5714 5710 5714 5715 5711 5709 5708 5708 5708 5709 5705 5700 5691 5688 5690 5693 5693 5692 5693 5692 5691 5690 5689 5689 5690 5690 5691 5690 5689 5687 5685 5685 5684 5682 5680 5678 5674 5672 5668 5665 5662 5660 5659 5658 5655 5653 5651 5650
5709 5710 5706 5705 5707 5708 5704 5702 5704 5703 5699 5701 5699 5690 5683 5684 5684 5683 5682 5680 5679 5681 5684 5684 5685 5686 5687 5688 5688 5686 5683 5682 5681 5680 5679 5676 5673 5669 5666 5664 5661 5658 5656 5654 5652 5651 5650 5647 5645
5705 5702 5702 5699 5699 5697 5697 5700 5697 5696 5694 5685 5682 5677 5677 5676 5674 5673 5673 5673 5674 5676 5678 5678 5679 5682 5685 5687 5686 5684 5682 5680 5679 5676 5674 5671 5667 5665 5661 5657 5655 5654 5652 5650 5647 5645 5644 5641 5639
5700 5699 5696 5696 5692 5693 5690 5693 5694 5688 5677 5674 5671 5670 5669 5668 5667 5666 5665 5667 5668 5670 5671 5673 5675 5678 5680 5681 5682 5680 5678 5675 5673 5669 5665 5663 5661 5660 5656 5651 5648 5646 5644 5644 5643 5640 5639 5638 5634
5695 5692 5694 5693 5689 5689 5686 5687 5685 5675 5670 5667 5665 5663 5662 5660 5657 5660 5659 5660 5660 5661 5664 5666 5668 5672 5675 5677 5675 5671 5667 5662 5659 5655 5654 5653 5651 5649 5647 5645 5642 5639 5636 5634 5632 5631 5629 5627 5625
5684 5685 5691 5692 5685 5685 5683 5675 5678 5677 5668 5663 5658 5655 5651 5649 5650 5650 5649 5650 5650 5653 5655 5656 5661 5665 5666 5663 5661 5658 5653 5650 5647 5644 5642 5641 5641 5640 5638 5636 5632 5629 5627 5625 5622 5620 5618 5617 5614
5677 5676 5677 5686 5680 5677 5676 5682 5673 5668 5667 5660 5653 5649 5645 5641 5641 5640 5639 5641 5643 5646 5647 5649 5655 5658 5657 5654 5651 5648 5644 5641 5637 5634 5632 5631 5629 5627 5626 5623 5620 5618 5617 5615 5614 5610 5608 5606 5606
5666 5676 5668 5676 5677 5673 5670 5674 5665 5661 5663 5657 5650 5644 5641 5640 5637 5633 5632 5632 5632 5634 5635 5636 5638 5641 5641 5640 5637 5633 5629 5627 5623 5623 5621 5620 5619 5617 5615 5610 5607 5605 5603 5602 5601 5599 5597 5595 5594
5666 5660 5660 5667 5671 5664 5666 5673 5660 5652 5654 5650 5643 5638 5635 5632 5626 5623 5623 5623 5625 5627 5628 5628 5627 5626 5625 5623 5622 5620 5616 5611 5606 5604 5603 5603 5603 5602 5599 5594 5591 5592 5592 5590 5586 5584 5583 5582 5580
5662 5660 5665 5663 5657 5654 5665 5669 5666 5650 5645 5642 5638 5634 5629 5623 5615 5614 5613 5614 5617 5618 5619 5619 5618 5616 5617 5617 5612 5605 5600 5593 5589 5585 5584 5583 5581 5579 5581 5582 5582 5578 5574 5570 5566 5571 5571 5571 5569
5647 5649 5656 5653 5645 5643 5654 5656 5667 5644 5645 5641 5635 5629 5625 5616 5612 5607 5605 5605 5606 5607 5609 5609 5607 5603 5602 5601 5597 5590 5582 5573 5570 5568 5567 5566 5564 5564 5561 5560 5557 5554 5555 5552 5552 5551 5554 5553 5550
5642 5642 5650 5644 5633 5630 5632 5647 5659 5639 5628 5625 5625 5624 5620 5619 5612 5605 5599 5596 5596 5596 5597 5600 5599 5595 5591 5585 5582 5579 5574 5565 5557 5551 5547 5545 5545 5542 5542 5539 5537 5536 5536 5531 5528 5527 5526 5529 5527
5635 5639 5633 5628 5624 5629 5624 5644 5653 5646 5630 5619 5616 5616 5614 5607 5601 5597 5594 5590 5584 5582 5583 5585 5587 5587 5587 5585 5583 5573 5565 5557 5543 5537 5531 5528 5526 5526 5523 5519 5517 5515 5512 5510 5508 5504 5503 5502 5500
5634 5624 5621 5619 5619 5609 5615 5620 5657 5625 5632 5622 5613 5609 5605 5597 5590 5586 5582 5577 5574 5571 5570 5569 5570 5567 5565 5562 5558 5554 5545 5536 5530 5521 5515 5512 5509 5505 5503 5501 5498 5494 5489 5488 5487 5484 5481 5479 5476
5608 5605 5600 5598 5601 5600 5624 5618 5650 5642 5645 5635 5611 5601 5596 5586 5579 5571 5565 5562 5561 5557 5556 5555 5554 5552 5548 5548 5543 5536 5531 5524 5518 5507 5501 5494 5488 5483 5482 5480 5475 5470 5469 5464 5463 5462 5456 5453 5450
5608 5606 5594 5586 5585 5605 5598 5603 5652 5648 5635 5634 5620 5605 5592 5579 5571 5565 5559 5553 5547 5543 5540 5539 5538 5535 5532 5531 5524 5520 5512 5507 5502 5494 5487 5484 5475 5468 5462 5458 5452 5447 5445 5440 5439 5436 5433 5431 5428
5597 5609 5602 5587 5592 5612 5573 5604 5637 5623 5611 5609 5615 5604 5589 5577 5568 5558 5552 5545 5538 5531 5529 5526 5522 5519 5515 5513 5509 5503 5494 5487 5481 5472 5466 5460 5453 5444 5437 5431 5427 5422 5419 5416 5412 5411 5408 5405 5405
5591 5587 5600 5571 5527 5583 5614 5614 5623 5597 5594 5589 5593 5585 5577 5570 5559 5552 5546 5539 5530 5522 5518 5515 5509 5502 5499 5495 5491 5486 5478 5472 5464 5454 5445 5438 5431 5423 5417 5413 5405 5401 5398 5391 5388 5386 5384 5381 5379
5594 5602 5576 5579 5579 5589 5605 5604 5638 5606 5605 5584 5575 5576 5572 5563 5551 5543 5535 5527 5518 5510 5502 5497 5493 5490 5483 5475 5471 5464 5456 5449 5441 5433 5428 5421 5412 5405 5397 5391 5386 5382 5376 5372 5367 5364 5361 5358 5357
5583 5583 5585 5595 5590 5595 5604 5621 5628 5625 5612 5593 5585 5578 5572 5558 5546 5536 5527 5518 5509 5502 5492 5484 5475 5471 5466 5458 5452 5443 5437 5431 5420 5412 5405 5398 5390 5383 5377 5371 5366 5360 5355 5349 5345 5342 5338 5334 5330
5591 5595 5592 5597 5576 5580 5585 5619 5600 5600 5598 5593 5586 5570 5561 5547 5536 5528 5518 5507 5499 5490 5481 5473 5462 5457 5452 5444 5435 5428 5420 5408 5400 5391 5383 5375 5369 5362 5356 5349 5343 5337 5332 5327 5323 5318 5314 5310 5307